Wind_Speed
12 9 7 5 6 8 6 3 4 4 4 6 8 8 10 12 14 14 15 15 15 14 13 13 13 12 12 12 11 11 10 10 10 9 8 7 7 6 5 5 5 3 3 2
14 12 9 8 10 10 6 4 4 5 5 6 7 8 7 9 13 13 13 13 13 13 12 12 12 12 12 12 12 11 10 10 9 9 9 8 7 7 6 6 5 4 3 3
16 12 11 12 12 10 7 8 8 8 8 7 8 9 7 7 9 12 12 12 12 12 11 11 11 11 11 11 11 11 10 10 9 9 8 8 7 7 6 6 5 5 4 4
17 15 15 15 12 12 11 11 10 10 9 8 9 13 12 7 8 10 11 11 11 11 10 10 10 10 10 10 10 10 10 9 9 8 7 7 7 6 6 6 6 6 6 5
20 18 19 18 16 15 15 13 12 12 10 10 10 12 14 10 7 9 10 10 11 10 10 9 9 9 9 9 9 9 9 9 8 8 7 6 6 6 5 5 5 5 5 5
22 21 21 19 18 18 16 15 14 13 11 11 11 11 13 11 9 9 9 10 10 9 9 9 8 8 8 8 8 8 8 8 8 7 7 6 5 5 4 5 4 4 4 4
24 24 22 20 19 19 17 16 16 14 13 14 12 11 14 15 10 9 10 10 10 9 9 9 8 8 8 8 8 8 7 7 7 7 6 6 5 4 4 4 4 4 4 4
24 25 23 22 22 21 19 18 18 17 15 15 13 12 12 12 11 12 12 11 11 10 10 9 8 8 8 8 7 7 7 7 7 6 6 5 5 4 4 4 4 4 4 4
24 24 23 24 23 22 21 20 18 18 17 16 16 14 12 11 11 12 13 12 12 12 11 11 10 8 8 8 8 7 7 7 6 6 6 6 4 4 5 5 4 4 4 5
25 24 24 24 24 25 24 21 20 19 18 19 18 18 14 13 12 12 13 13 13 13 13 12 11 10 9 9 9 8 8 8 7 7 7 6 6 5 5 6 5 5 5 5
27 26 23 24 25 24 24 23 21 20 19 19 19 19 16 14 13 14 13 13 14 15 15 13 12 11 11 11 10 10 8 8 8 8 8 8 8 8 7 7 7 7 7 8
29 27 25 25 25 23 23 22 22 22 22 21 20 20 18 16 14 14 13 14 15 15 15 14 13 13 13 12 11 11 10 9 10 10 10 10 10 9 9 8 8 9 9 10
30 30 28 25 25 24 24 23 23 23 22 23 23 25 20 18 16 15 15 15 16 16 16 15 14 14 14 14 13 12 11 11 12 11 11 11 11 10 10 10 10 10 11 11
32 32 30 26 24 23 24 24 24 24 23 24 24 24 21 18 17 17 17 17 17 17 17 17 17 15 15 15 15 14 13 13 13 13 13 13 13 13 12 13 13 13 13 14
32 31 31 29 25 23 24 25 24 25 25 25 26 26 24 22 20 19 19 18 18 18 18 19 18 17 17 17 17 17 15 15 15 15 15 15 15 15 15 15 15 15 15 16
32 32 33 32 28 25 25 24 23 23 23 25 28 28 27 25 23 22 21 20 19 19 19 20 19 19 19 19 19 19 18 18 17 18 18 18 18 18 18 18 18 18 18 18
31 31 32 31 29 27 29 26 25 24 24 25 26 27 29 26 24 24 23 21 21 21 22 23 22 21 20 20 20 20 20 20 20 20 20 21 21 21 21 21 21 21 21 21
30 30 30 29 28 29 29 25 25 25 26 27 28 30 30 26 25 25 24 23 23 23 23 22 21 22 22 22 21 21 22 22 22 22 22 23 24 24 23 24 24 23 24 24
29 30 29 29 28 28 28 27 27 28 29 29 29 30 30 28 27 27 25 24 24 24 24 23 23 24 25 25 24 24 25 25 25 25 25 25 26 26 26 26 26 26 27 27
29 30 29 28 27 27 27 27 27 27 30 29 29 30 31 29 28 27 27 27 26 25 25 25 25 25 26 27 27 27 27 27 28 28 27 27 28 28 28 28 29 29 29 29
28 29 29 29 28 27 27 28 28 28 28 29 29 30 31 29 29 28 29 28 28 27 27 27 27 27 28 28 29 29 29 29 30 30 30 30 31 30 30 30 31 31 32 32
26 27 29 29 28 29 29 29 31 31 29 29 28 29 30 30 28 28 30 30 29 29 29 29 29 29 30 31 31 32 32 32 33 32 33 33 33 32 32 32 32 33 34 34
27 27 28 29 29 31 30 30 31 31 30 30 30 29 29 29 30 29 29 30 30 30 30 31 32 32 32 32 32 33 33 34 34 33 33 34 34 34 34 34 34 34 35 35
27 28 29 30 32 31 32 30 30 30 29 29 30 29 28 28 29 30 30 30 30 31 31 32 32 33 34 34 33 33 34 34 34 34 34 35 35 35 35 36 36 36 36 36
27 28 30 31 33 33 31 30 29 30 30 29 29 29 29 29 29 29 30 30 31 32 33 33 33 34 35 35 35 35 36 36 35 35 35 35 35 36 36 37 37 37 37 37
29 29 29 31 31 32 32 30 31 31 31 31 31 31 31 30 30 31 32 32 32 33 34 34 35 36 36 36 37 37 37 37 37 36 36 36 37 37 37 38 38 38 37 38
Wind_Direction
210 208 202 209 235 241 236 222 264 284 317 327 337 351 360 7 11 13 15 19 22 26 29 30 32 36 37 37 37 36 42 49 51 53 57 65 71 73 80 84 85 82 77 77
212 210 207 217 232 239 241 259 268 280 286 310 312 319 337 356 0 5 10 13 17 21 24 25 28 32 34 35 36 35 37 40 45 50 52 58 67 69 72 76 73 73 66 58
217 215 220 226 234 237 238 250 251 266 281 292 305 299 301 338 346 351 356 3 9 16 19 22 27 30 30 30 33 35 37 39 42 47 50 57 67 70 70 71 70 68 69 70
220 215 225 230 228 234 239 246 254 261 274 285 287 295 303 308 333 340 346 351 359 7 13 17 21 24 27 26 29 31 35 39 42 44 47 52 59 63 66 68 69 67 65 64
224 222 223 227 231 233 235 242 246 251 261 272 281 295 304 294 305 328 336 341 347 356 3 9 13 16 19 21 21 23 25 31 36 37 39 48 57 61 65 67 65 61 58 57
222 226 226 226 232 233 234 240 248 253 257 258 266 278 287 296 296 307 316 324 333 344 350 357 1 3 6 11 14 13 13 20 26 28 28 35 47 57 61 62 57 53 47 45
226 224 226 227 230 232 233 239 250 260 266 258 257 260 278 286 288 296 299 303 315 324 332 344 350 350 352 357 3 5 4 7 13 17 21 23 24 35 40 42 41 37 29 24
232 233 228 230 229 229 231 234 242 250 264 269 263 254 263 283 293 286 285 292 301 307 319 329 333 332 337 340 345 350 351 353 357 2 7 3 8 17 11 11 12 6 4 358
229 237 236 236 235 230 230 235 243 251 260 267 259 262 260 267 276 280 285 286 291 297 304 309 317 320 321 327 330 331 332 335 340 344 351 348 351 2 355 350 341 333 329 334
223 232 232 234 234 234 231 233 240 240 253 261 264 264 254 260 257 271 282 284 284 287 294 299 304 306 308 313 317 318 317 319 324 329 330 332 333 338 338 331 323 319 318 320
220 227 229 228 230 230 232 231 233 240 242 253 265 263 268 270 264 270 279 282 281 280 286 291 296 297 297 303 306 306 303 304 308 312 314 314 315 318 316 316 314 313 314 315
223 224 228 229 232 233 235 237 234 240 244 247 254 262 264 268 269 270 277 279 278 277 280 282 285 289 289 291 292 295 293 294 297 299 301 304 303 303 307 307 305 303 303 301
221 222 226 229 230 234 235 232 231 234 245 250 251 258 260 264 262 266 271 273 274 273 274 276 278 280 282 285 285 289 287 292 291 291 294 296 299 300 301 301 300 301 297 296
224 223 220 225 233 234 238 236 233 232 236 245 250 258 259 258 254 263 268 271 271 270 269 271 276 276 278 281 283 287 289 288 288 288 292 294 292 293 293 294 294 296 295 293
226 227 224 222 227 232 234 235 235 238 239 245 250 252 252 251 252 259 264 267 268 267 267 269 272 276 276 276 279 280 283 286 285 282 287 288 287 287 286 288 289 289 290 290
224 226 226 225 225 231 235 236 238 240 243 246 251 252 256 255 255 259 264 264 265 265 267 267 268 270 273 273 277 278 280 283 285 284 283 282 282 282 283 284 285 285 287 290
227 228 228 229 229 232 235 237 237 236 238 244 251 255 256 247 255 260 262 263 263 264 267 267 264 267 270 272 274 275 277 280 282 282 282 282 281 282 281 281 283 285 287 289
230 230 231 231 229 234 238 238 241 243 246 246 249 253 254 250 255 257 258 261 264 264 267 270 270 269 269 270 273 275 277 279 279 278 280 282 282 282 283 284 284 284 288 288
234 232 231 232 234 236 238 239 240 242 245 245 248 254 255 256 255 256 256 259 261 262 265 267 269 270 271 272 274 275 277 278 278 277 278 281 282 283 283 284 283 282 284 286
233 234 232 233 234 238 240 241 242 245 247 246 246 250 254 255 252 254 256 258 260 261 264 267 269 271 271 272 273 275 277 279 279 277 278 279 280 281 281 282 282 282 283 284
231 232 232 232 234 237 241 241 239 238 241 245 248 250 253 256 254 254 257 258 259 261 264 267 268 270 272 273 275 276 278 279 279 278 278 279 280 281 281 281 281 281 281 282
231 231 231 230 232 237 240 241 239 240 243 248 250 252 253 256 256 255 256 258 261 262 265 268 269 271 273 274 275 276 278 278 278 278 278 279 279 280 280 281 281 281 281 281
225 226 229 230 231 234 237 240 241 243 247 249 254 255 253 255 257 257 259 259 261 263 265 267 268 270 272 274 276 277 278 278 277 277 277 278 278 279 279 280 280 280 281 282
227 228 230 231 232 235 239 241 244 246 249 251 252 253 255 257 257 259 261 262 264 266 268 270 271 272 273 275 276 278 279 279 279 279 279 279 278 278 279 279 279 279 281 282
229 227 230 235 235 236 238 242 246 249 252 254 254 256 256 257 259 260 261 263 265 266 269 271 272 273 273 274 275 277 278 278 279 280 280 280 280 279 278 279 279 279 279 280
230 230 232 234 236 236 240 245 247 249 253 254 256 257 258 258 259 261 262 265 266 269 271 272 273 274 274 275 276 277 278 277 278 279 280 281 281 281 280 280 280 279 278 279
Height
5907 5910 5911 5914 5916 5917 5918 5918 5919 5917 5918 5918 5916 5914 5913 5911 5910 5908 5906 5904 5902 5901 5899 5898 5896 5895 5894 5892 5891 5890 5889 5888 5887 5886 5886 5885 5885 5886 5886 5886 5886 5886 5887 5887
5906 5908 5911 5914 5915 5915 5916 5917 5919 5917 5917 5917 5916 5915 5913 5912 5911 5910 5908 5906 5904 5903 5901 5900 5898 5897 5896 5895 5893 5892 5891 5890 5889 5888 5888 5887 5887 5887 5887 5887 5887 5887 5888 5888
5902 5908 5910 5912 5914 5915 5917 5918 5918 5918 5916 5916 5916 5913 5911 5911 5911 5910 5909 5907 5906 5904 5903 5901 5900 5899 5897 5896 5895 5894 5893 5892 5891 5890 5890 5889 5889 5889 5889 5889 5889 5889 5889 5889
5899 5904 5908 5910 5912 5914 5916 5917 5916 5916 5915 5916 5916 5913 5911 5910 5910 5910 5909 5908 5906 5905 5904 5902 5901 5900 5899 5898 5897 5896 5895 5894 5893 5892 5891 5891 5891 5890 5890 5890 5890 5890 5890 5890
5896 5901 5904 5907 5910 5912 5913 5914 5915 5914 5914 5915 5914 5913 5910 5908 5907 5909 5909 5908 5907 5905 5904 5903 5902 5901 5900 5899 5898 5897 5896 5895 5894 5894 5893 5892 5892 5892 5891 5891 5891 5891 5891 5891
5893 5898 5901 5904 5907 5909 5910 5912 5912 5912 5912 5913 5913 5913 5910 5908 5908 5908 5908 5908 5907 5906 5905 5904 5903 5902 5901 5900 5899 5898 5897 5896 5896 5895 5894 5893 5893 5892 5892 5892 5892 5892 5892 5892
5888 5893 5896 5900 5902 5905 5907 5909 5910 5910 5909 5910 5910 5911 5911 5908 5907 5908 5907 5907 5907 5906 5905 5904 5903 5902 5901 5901 5900 5899 5898 5897 5896 5895 5895 5894 5893 5893 5893 5893 5893 5893 5893 5893
5886 5888 5892 5895 5898 5901 5903 5906 5907 5908 5908 5908 5906 5906 5908 5907 5906 5907 5906 5905 5905 5904 5904 5903 5903 5902 5901 5900 5900 5899 5898 5897 5897 5896 5895 5894 5894 5893 5893 5893 5893 5893 5893 5893
5883 5886 5889 5891 5893 5897 5899 5901 5903 5905 5904 5905 5904 5903 5904 5905 5904 5905 5904 5904 5904 5903 5903 5902 5901 5901 5900 5900 5899 5899 5898 5897 5897 5896 5895 5894 5894 5894 5893 5893 5893 5893 5893 5892
5877 5881 5884 5887 5889 5891 5894 5897 5900 5900 5901 5901 5902 5900 5900 5900 5901 5902 5902 5902 5902 5901 5901 5901 5900 5899 5899 5899 5899 5898 5897 5897 5897 5896 5895 5895 5894 5893 5893 5893 5892 5892 5892 5892
5872 5875 5878 5881 5881 5886 5889 5892 5894 5896 5897 5898 5898 5898 5897 5897 5897 5898 5898 5899 5900 5899 5898 5898 5898 5898 5898 5897 5897 5897 5896 5896 5895 5895 5894 5894 5893 5893 5892 5892 5891 5891 5891 5890
5865 5869 5872 5875 5879 5882 5885 5887 5890 5892 5893 5894 5895 5897 5894 5893 5892 5893 5894 5896 5896 5896 5896 5896 5896 5895 5895 5895 5895 5895 5894 5894 5894 5893 5893 5892 5892 5891 5891 5890 5890 5889 5889 5889
5858 5862 5867 5871 5875 5877 5878 5881 5884 5887 5890 5890 5891 5891 5890 5889 5890 5891 5893 5893 5893 5893 5893 5892 5892 5893 5892 5892 5892 5892 5892 5892 5891 5891 5890 5890 5890 5889 5889 5888 5888 5887 5887 5886
5851 5855 5860 5865 5869 5872 5873 5876 5879 5882 5883 5884 5885 5885 5885 5885 5886 5888 5889 5889 5889 5890 5890 5889 5889 5889 5889 5889 5889 5889 5889 5889 5889 5888 5888 5887 5887 5886 5886 5885 5885 5884 5884 5883
5845 5848 5852 5857 5862 5865 5868 5870 5873 5875 5877 5879 5879 5878 5878 5880 5881 5882 5883 5885 5885 5885 5886 5886 5886 5885 5886 5886 5886 5886 5885 5885 5885 5884 5884 5884 5883 5883 5882 5882 5881 5881 5880 5879
5837 5842 5846 5850 5855 5859 5861 5864 5867 5869 5871 5872 5872 5871 5871 5875 5875 5877 5879 5879 5880 5881 5881 5882 5882 5882 5882 5882 5882 5882 5881 5881 5881 5880 5880 5880 5879 5878 5878 5877 5877 5876 5876 5875
5831 5835 5839 5844 5848 5851 5854 5858 5860 5863 5865 5867 5866 5867 5866 5868 5870 5872 5873 5874 5875 5876 5876 5876 5876 5877 5877 5877 5877 5877 5877 5877 5876 5876 5875 5875 5874 5873 5873 5872 5871 5871 5870 5869
5826 5829 5833 5838 5842 5844 5849 5852 5854 5856 5858 5860 5860 5859 5858 5859 5864 5865 5866 5868 5869 5870 5870 5870 5870 5871 5871 5872 5872 5872 5872 5871 5871 5870 5870 5869 5868 5867 5866 5866 5865 5865 5864 5863
5820 5823 5827 5832 5835 5838 5842 5845 5847 5849 5850 5852 5852 5852 5853 5854 5857 5858 5860 5862 5863 5864 5865 5865 5865 5866 5866 5866 5866 5866 5866 5866 5865 5864 5863 5862 5861 5860 5859 5859 5857 5857 5856 5856
5814 5817 5822 5825 5828 5832 5835 5836 5838 5842 5841 5843 5844 5845 5846 5847 5849 5852 5853 5855 5856 5858 5858 5859 5859 5859 5859 5859 5859 5859 5859 5858 5858 5857 5856 5855 5854 5853 5852 5851 5850 5849 5848 5848
5808 5810 5814 5818 5821 5824 5826 5827 5831 5834 5834 5835 5836 5837 5839 5841 5842 5845 5846 5848 5849 5851 5852 5852 5852 5853 5852 5852 5852 5851 5850 5850 5849 5849 5848 5847 5846 5845 5844 5843 5842 5841 5840 5839
5802 5805 5808 5811 5815 5818 5818 5820 5823 5824 5826 5827 5827 5830 5833 5834 5835 5837 5839 5841 5842 5843 5844 5845 5845 5845 5845 5844 5843 5843 5842 5841 5840 5839 5839 5838 5837 5836 5835 5834 5833 5832 5831 5830
5794 5798 5801 5805 5808 5808 5810 5812 5814 5816 5819 5820 5821 5824 5825 5828 5829 5830 5832 5833 5834 5835 5836 5836 5836 5836 5836 5835 5834 5834 5833 5831 5830 5829 5829 5828 5827 5826 5825 5825 5824 5823 5822 5820
5787 5790 5794 5796 5798 5801 5804 5806 5807 5809 5812 5813 5815 5817 5819 5820 5822 5823 5825 5825 5826 5827 5827 5827 5827 5827 5827 5826 5826 5825 5824 5822 5821 5820 5819 5818 5817 5816 5815 5814 5813 5812 5811 5810
5780 5784 5786 5788 5791 5794 5796 5799 5801 5803 5805 5807 5809 5810 5811 5813 5814 5815 5816 5817 5817 5818 5818 5818 5818 5818 5817 5817 5816 5815 5813 5812 5811 5809 5808 5807 5806 5805 5804 5803 5802 5801 5800 5799
5774 5778 5780 5782 5784 5787 5790 5792 5794 5796 5798 5800 5801 5803 5804 5805 5806 5807 5807 5808 5809 5809 5809 5808 5808 5807 5807 5806 5805 5804 5803 5801 5800 5799 5797 5796 5794 5793 5792 5791 5790 5789 5789 5788